Philadelphia, PA

3:50 PM EST on December 06, 2016 (GMT -0500)
Philadelphia International

Weather History for KPHL - July, 2013

Change the Weather History Date:

Saturday, July 20, 2013

  Actual Average Record
Temperature  
Mean Temperature 84 °F 78 °F  
Max Temperature 94 °F 87 °F 99 °F (1930)
Min Temperature 74 °F 70 °F 57 °F (1890)
Degree Days  
Heating Degree Days 0 0  
Month to date heating degree days 0 0  
Since 1 June heating degree days 0 11  
Since 1 July heating degree days 0 0  
Cooling Degree Days 19 13  
Month to date cooling degree days 364 257  
Year to date cooling degree days 782 606  
Since 1 June cooling degree days 658 515  
Growing Degree Days 34 (Base 50)    
Moisture  
Dew Point 70 °F    
Average Humidity 61    
Maximum Humidity 76    
Minimum Humidity 46    
Precipitation  
Precipitation 0.39 in 0.14 in 2.32 in (1938)
Month to date precipitation 1.93 2.79  
Year to date precipitation 25.02 22.96  
Snow  
Snow 0.00 in 0.00 in 0.00 in (1870)
Month to date snowfall 0.0 0.0  
Since 1 June snowfall 0.0 0.0  
Since 1 July snowfall 0.0 0.0  
Snow Depth 0.00 in    
Sea Level Pressure  
Sea Level Pressure 29.84 in    
Wind  
Wind Speed 13 mph (SW)    
Max Wind Speed 41 mph    
Max Gust Speed 66 mph    
Visibility 9 miles    
Events Rain , Thunderstorm    
T = Trace of Precipitation, MM = Missing Value Source: NWS Daily Summary

Daily Weather History Graph

Daily Weather History Graph

Search for Another Location

Airport or City:

Trip Planner

Search our weather history database for the weather conditions in past years. The results will help you decide how hot, cold, wet, or windy it might be!

Date:

Astronomy

Jul. 20, 2013 Rise Set
Actual Time 5:49 AM EDT 8:24 PM EDT
Civil Twilight 5:17 AM EDT 8:56 PM EDT
Nautical Twilight 4:38 AM EDT 9:35 PM EDT
Astronomical Twilight 3:54 AM EDT 10:18 PM EDT
Moon 6:26 PM EDT (7/20) 3:26 AM EDT (7/20)
Length of Visible Light 15h 38m
Length of Day
14h 35m
Waxing Gibbous, 93% of the Moon is Illuminated
Jul 20
Waxing Gibbous
Jul 22
Full
Jul 29
Last Quarter
Aug 6
New
Aug 14
First Quarter

Hourly Weather History & Observations

Time (EDT) Temp. Heat Index Dew Point Humidity Pressure Visibility Wind Dir Wind Speed Gust Speed Precip Events Conditions
12:54 AM 84.0 °F 89.0 °F 71.1 °F 65% 29.87 in 9.0 mi WSW 8.1 mph - N/A   Mostly Cloudy
1:26 AM 82.4 °F 86.3 °F 69.8 °F 66% 29.87 in 10.0 mi WSW 6.9 mph - N/A   Mostly Cloudy
1:54 AM 82.9 °F 86.5 °F 69.1 °F 63% 29.87 in 10.0 mi WSW 8.1 mph - N/A   Mostly Cloudy
2:54 AM 82.0 °F 85.5 °F 69.1 °F 65% 29.86 in 10.0 mi SW 8.1 mph - N/A   Mostly Cloudy
3:54 AM 82.0 °F 85.9 °F 70.0 °F 67% 29.83 in 10.0 mi SW 12.7 mph - N/A   Mostly Cloudy
4:54 AM 81.0 °F 84.1 °F 69.1 °F 67% 29.83 in 10.0 mi SW 9.2 mph - N/A   Mostly Cloudy
5:54 AM 80.1 °F 82.9 °F 69.1 °F 69% 29.86 in 10.0 mi SW 10.4 mph - N/A   Mostly Cloudy
6:54 AM 81.0 °F 84.4 °F 70.0 °F 69% 29.86 in 10.0 mi SW 9.2 mph - N/A   Mostly Cloudy
7:54 AM 82.0 °F 85.9 °F 70.0 °F 67% 29.86 in 10.0 mi SW 12.7 mph - N/A   Mostly Cloudy
8:54 AM 82.9 °F 87.0 °F 70.0 °F 65% 29.85 in 10.0 mi WSW 11.5 mph - N/A   Mostly Cloudy
9:54 AM 84.9 °F 89.4 °F 70.0 °F 61% 29.86 in 10.0 mi WSW 17.3 mph - N/A   Mostly Cloudy
10:54 AM 87.1 °F 91.3 °F 69.1 °F 55% 29.86 in 10.0 mi WSW 16.1 mph - N/A   Mostly Cloudy
11:54 AM 90.0 °F 94.5 °F 69.1 °F 50% 29.84 in 10.0 mi WSW 16.1 mph - N/A   Mostly Cloudy
12:54 PM 91.0 °F 96.6 °F 70.0 °F 50% 29.82 in 10.0 mi WSW 16.1 mph - N/A   Mostly Cloudy
1:54 PM 93.0 °F 100.1 °F 71.1 °F 49% 29.81 in 10.0 mi WSW 16.1 mph 23.0 mph N/A   Mostly Cloudy
2:54 PM 93.0 °F 100.7 °F 72.0 °F 50% 29.78 in 10.0 mi SW 18.4 mph 25.3 mph N/A   Mostly Cloudy
3:54 PM 91.9 °F 99.5 °F 72.0 °F 52% 29.78 in 10.0 mi SW 17.3 mph - N/A   Mostly Cloudy
4:54 PM 91.9 °F 98.4 °F 71.1 °F 50% 29.79 in 10.0 mi West 16.1 mph - N/A   Mostly Cloudy
5:54 PM 93.0 °F 97.9 °F 69.1 °F 45% 29.78 in 10.0 mi West 17.3 mph 24.2 mph N/A   Mostly Cloudy
6:54 PM 91.9 °F 97.4 °F 70.0 °F 48% 29.78 in 10.0 mi West 12.7 mph 21.9 mph N/A   Mostly Cloudy
7:54 PM 90.0 °F 94.5 °F 69.1 °F 50% 29.81 in 10.0 mi West 11.5 mph - N/A   Mostly Cloudy
8:45 PM 87.8 °F 93.8 °F 71.6 °F 58% 29.82 in 10.0 mi SW 4.6 mph - N/A Thunderstorm Thunderstorm
8:54 PM 88.0 °F 93.8 °F 71.1 °F 57% 29.84 in 2.0 mi West 15.0 mph 32.2 mph 0.00 in Rain , Thunderstorm Heavy Thunderstorms and Rain
8:56 PM 86.0 °F 91.8 °F 71.6 °F 62% 29.85 in 2.0 mi West 38.0 mph 52.9 mph 0.00 in Rain , Thunderstorm Heavy Thunderstorms and Rain
9:01 PM 80.6 °F 84.6 °F 71.6 °F 74% 29.85 in 1.0 mi WSW 28.8 mph 52.9 mph 0.07 in Rain , Thunderstorm Heavy Thunderstorms and Rain
9:07 PM 75.2 °F - 69.8 °F 83% 29.82 in 5.0 mi SE 16.1 mph 65.6 mph 0.17 in Rain , Thunderstorm Heavy Thunderstorms and Rain
9:11 PM 75.2 °F - 69.8 °F 83% 29.82 in 7.0 mi SE 15.0 mph 65.6 mph 0.37 in Rain , Thunderstorm Heavy Thunderstorms and Rain
9:20 PM 78.8 °F - 69.8 °F 74% 29.82 in 10.0 mi South 4.6 mph 18.4 mph 0.37 in Rain , Thunderstorm Light Thunderstorms and Rain
9:54 PM 75.9 °F - 69.1 °F 79% 29.83 in 10.0 mi ESE 8.1 mph - 0.37 in Thunderstorm Thunderstorm
10:35 PM 77.0 °F - 71.6 °F 83% 29.86 in 10.0 mi East 8.1 mph - N/A   Mostly Cloudy
10:54 PM 77.0 °F - 71.1 °F 82% 29.86 in 10.0 mi SSE 4.6 mph - N/A   Mostly Cloudy
11:54 PM 77.0 °F - 69.1 °F 76% 29.88 in 10.0 mi South 10.4 mph - N/A   Mostly Cloudy